Погода Звериноголовская

Погода Звериноголовская : погода сейчас, прогноз погоды и архив. Всё, что Вы хотите узнать о погоде Звериноголовская!

Поиск расширенной информации на нашем сайте:

Другие новости

Новости СМИ2

Главная страница сайта

Новости сайта

02.10.2013

Напоминаем, что на нашем новом сайте вы можете получить высокодетализированные прогнозы погоды по пунктам России, СНГ и мира (включающие важные для авиации метеовеличины, такие как направление и скорость ветра, видимость, явления погоды, количество и форма облачности, нижняя и верхняя граница облачности), а также ознакомиться с разнообразными материалами по авиационной метеорологии и подборкой полезных ссылок на эту тему.

Сайт Метеоцентр.Азия посвящён разработке технологий оптимизации авиаметеорологического обслуживания, включая проектирование и перспективное создание нескольких автоматизированных авиаметеорологических систем:
- система выпуска высокодетальных прогностических карт явлений погоды для нижнего воздушного пространства по России и ближнему зарубежью;
- система верификации прогнозов TAF (выпускаемых синоптиками официальных АМСГ РФ и ближнего зарубежья) и AUTOTAF (выпускаемых сайтом Метеоцентр.Азия) - выявление ошибок, онлайн-сопоставление с фактической погодой METAR, автоматическое внесение коррективов в прогнозы при резком отклонении фактической погоды от прогноза, подсчёт оправдываемости прогнозов по элементам и в целом;
- система обработки, анализа и отображения авиаметеорологической информации для применения провайдерами метеорологической информации.


Погода Звериноголовская - сегодня

Время (UTC), дата Ветер
(°,м/с) 
Видим.   Явления Облачность Т
(°С)
Тd
(°С)
f(%) Тe
(°С)
Pmin
(гПа)
dP
(гПа)
Po
(мм)
O2
(г/м3)
Тmin Tmax R s Состояние
почвы
06 19.01.17 190 (Ю) 20000 м    6/0 верхняя 
[Cs]
-19.6 -22.3 79 -22  1028.3  -0.8  759  331           
09 19.01.17 200 (Ю) 20000 м    10/0 средняя 
[Ac As]
-19.6 -22.3 79 -22  1028.3  -1.5  758  331           
12 19.01.17 160 (Ю) 20000 м    10/0 средняя, верхняя 
[Ac As|Cs]
-20.8 -23.5 79 -21  1026  -0.8  757  332           
15 19.01.17 170 (Ю) 10 км    10/0 средняя 
[Ac As]
-21.2 -24 78 -26  1024.3  -1.7  756  332    -18.1       
18 19.01.17 210 (ЮЗ) 10 км    10/0 средняя 
[Ac As]
-21.4 -24.2 78 -22  1022.9  -1.3  755  332           
21 19.01.17 190 (Ю) 10 км    10/0 средняя 
[Ac As]
-20.4 -23.1 79 -23  1021.2  -1.6  754  330           
00 20.01.17 170 (Ю) 10 км    ясно 
-22.2 -25.1 77 -25  1019.3  -2  752  332           
03 20.01.17 190 (Ю) 10 км    3/0 верхняя 
[Cs]
-24.3 -27.4 75 -27  1017.9  -1.5  751  334  -24.3      37  равномерный
сухой снег
100% 
06 20.01.17 190 (Ю) 20000 м    ясно 
-22.5 -25.5 76 -27  1016.5  -1.2  750  331           
09 20.01.17 180 (Ю) 20000 м    4/0 верхняя 
[Cs]
-22.1 -25.1 77 -28  1013.7  -2.7  748  330           
12 20.01.17 180 (Ю) 6-11{11}  20000 м  позёмок  4/0 верхняя 
[Cs]
-20.7 -23.5 78 -28  1010.8  -2.8  746  327           
15 20.01.17 180 (Ю) 7-12{12}  10 км  позёмок  10/0 средняя 
[As trans]
-20.2 -23 78 -28  1007.9  -2.8  744  325    -20.2       
18 20.01.17 190 (Ю) 6-11{12}  10 км  позёмок  5/0 верхняя 
[Cs]
-16.7 -19.1 82 -23  1004.4  -2.8  742  320           
21 20.01.17 200 (Ю) 7-13{15}  4000 м  метель  10/0 средняя 
[Ac As]
-12.5 -14.7 84 -19  1001.7  -2.5  740  314           
00 21.01.17 210 (ЮЗ) 6-10{13}  4000 м  слаб. снег  10/0 средняя 
[As op]
-11.6 -13.7 84 -17  999.4  -2.1  738  312           
03 21.01.17 200 (Ю) 4{13}  10 км  позёмок{снег}  8/0 средняя 
[Ac As]
-11.4 -14.1 80 -16  998.7  -0.7  738  311  -20.2    0.6  34  равномерный
сухой снег
100% 
06 21.01.17 210 (ЮЗ) 20000 м  {снег}  9/0 средняя 
[Ac As]
-11.1 -15 73 -16  1000  1.2  739  312           
09 21.01.17 200 (Ю) 20000 м    5/0 верхняя 
[Cs]
-10 -14.1 72 -15  1000.3  0.4  739  310           
12 21.01.17 210 (ЮЗ) 20000 м    5/0 средняя, верхняя 
[As trans|Cs]
-10.3 -13.7 76 -15  1000.8  0.5  739  311           
15 21.01.17 210 (ЮЗ) 10 км    8/0 средняя 
[Ac As]
-11.2 -13.9 80 -16  1001.4  0.5  740  312    -9.5       
18 21.01.17 210 (ЮЗ) 10 км  позёмок  9/0 средняя 
[Ac As]
-10.7 -13.3 81 -16  1001.8  0.5  740  312           
21 21.01.17 200 (Ю) 10 км    10/0 средняя 
[Ac As]
-11.5 -13.9 82 -16  1002.8  0.9  741  313           
00 22.01.17 200 (Ю) 10 км    8/0 средняя 
[Ac As]
-12.2 -14.6 82 -16  1002.9  0.1  741  314           
03 22.01.17 200 (Ю) 10 км    8/0 средняя 
[Ac As]
-10.3 -12.4 85 -14  1001.5  -1.3  740  311  -13      34  равномерный
сухой снег
100% 
06 22.01.17 200 (Ю) 5{10}  20000 м    10/0 средняя 
[Ac As]
-8.8 -11.3 82 -13  1000.6  -0.8  739  309           
Время (UTC), дата Ветер
(°,м/с) 
Видим.   Явления Облачность Т
(°С)
Тd
(°С)
f(%) Тe
(°С)
Pmin
(гПа)
dP
(гПа)
Po
(мм)
O2
(г/м3)
Тmin Tmax R s Состояние
почвы

Для получения пояснительной информации подведите курсор к названию столбца.

ПОГОДА Звериноголовская - архив

Всё, что Вы хотите узнать о погоде Звериноголовская - удобно и подробно!

Выберите нужную дату (начиная с 1 января 2015* года) и нажмите кнопку "Найти".
Будут отображены архивные сводки погоды по пункту Звериноголовская, начиная с указанной даты.


Отображать данные в формате CSV (для использования в таблицах Excel)


Внимание! Наш архив погоды предназначен исключительно для личного некоммерческого использования в познавательных целях. Если Вам необходимы официальные справки о состоянии погоды (для производственных, юридических, коммерческих и т.п. целей), обращайтесь в органы Росгидромета.

*Примечание: данная дата относится к архиву по метеостанциям СССР (Россия, СНГ, Балтия).
Архив по метеостанциям Зарубежной Европы и Азии (кроме Китая) хранится 10 дней, по другим регионам земного шара (Китай, Африка, Америка, Австралия, Океания) - 1 день.

Звериноголовская - район местоположения метеостанции


Название, широта, долгота, высота метеостанции:
Звериноголовская 54.5°ш. 64.9°д. 117 м над ур. моря [Российская Федерация]

Дополнительная информация

В oтличие oт бoльшинства пoгoдных сайтoв мы публикуем пoдрoбную метеoинфoрмацию в детальнoм прoфессиoнальнoм фoрмате.

Характеристики температуры и влажнoсти вoздуха измеряются на высoте 2 м в тени вдали oт зданий и деревьев.
Скoрoсть ветра измеряется на высoте 10 м (на урoвне рoста челoвека скoрoсть ветра ниже в 1.5-2 раза). Если метеoстанция нахoдится в гoрoде или в лесу, тo скoрoсть ветра занижена на 2-4 м/с пo сравнению с oткрытым местoм. Скoрoсть ветра над акватoриями крупных рек и oзёр, а также на вершинах хoлмoв на 2-5 м/с выше, чем в oбычных услoвиях.
Атмoсфернoе давление в разных тoчках местнoсти мoжет значительнo oтличаться oт давления на метеoстанции, в зависимoсти oт услoвий рельефа (при пoдъёме на 10 м давление пoнижается примернo на 1 мм рт.ст.).